Tracking 30101 objects as of 14-Dec-2024
HD Live streaming from Space Station
objects crossing your sky now

STARLINK-32504

Track STARLINK-32504 now!
10-day predictions
STARLINK-32504 is classified as:


NORAD ID: 62024
Int'l Code: 2024-213S
Perigee: 451.5 km
Apogee: 453.3 km
Inclination: 53.2 °
Period: 93.5 minutes
Semi major axis: 6823 km
RCS: Unknown
Launch date: November 18, 2024
Source: United States (US)
Launch site: AIR FORCE WESTERN TEST RANGE (AFWTR)
Your satellite tracking list
Your tracking list is empty




NASA's NSSDC Master Catalog

Two Line Element Set (TLE):
1 62024U 24213S   24349.16667824 -.00877729  00000-0 -23295-1 0  9992
2 62024  53.1602 107.6027 0001286  80.7000 201.0255 15.40284848  5293
Source of the keplerian elements: AFSPC